Flag Weather past 2 weeks in Citrus Heights, California, U.S.A.

Now
64 °F

Partly sunny.


Feels Like: 64 °F
Forecast: 55 / 66 °F
Wind: 5 mph from South

Location: Mather Field

Current Time: Oct 31, 2014 at 10:24:27 AM

Latest Report: Oct 31, 2014 at 9:45 AM


Visibility: 10 mi

Pressure: 29.87 "Hg

Humidity: 68%

Dew point: 54 °F

Location of Citrus HeightsLocation

Historic Weather in Citrus Heights — Graph

°F

Citrus Heights temperature yesterday

Maximum temperature yesterday: 81 °F (at 2:50 PM)
Minimum temperature yesterday: 50 °F (at 6:48 AM)
Average temperature yesterday: 67 °F

Past Weeks' High & Low Weather Summary

 TemperatureHumidityPressure
High81 °F (Oct 19, 3:50 PM)100% (Oct 16, 8:48 AM)30.16 "Hg (Oct 16, 8:48 AM)
Low39 °F (Oct 27, 5:45 AM)27% (Oct 26, 3:46 PM)29.82 "Hg (Oct 19, 5:58 PM)
Average61 °F66%29.99 "Hg
* Reported Oct 16 8:48 AM — Oct 31 8:45 AM, Citrus Heights, Weather by CustomWeather, © 2014

Note: Actual official high and low records may vary slightly from our data, if they occured in-between our weather recording intervals... More about our weather records

Advertising

Citrus Heights weather history for previous 24 hours

 ConditionsComfort  
Time TempWeatherWind HumidityBarometerVisibility
8:45 AM
Oct 31
61 °FPartly sunny.3 mph77%29.87 "Hg10 mi
7:45 AM57 °FPassing clouds.2 mph82%29.85 "Hg10 mi
6:45 AM55 °FPassing clouds.7 mph94%29.89 "Hg10 mi
5:53 AM57 °FPassing clouds.5 mph88%29.87 "Hg10 mi
4:45 AM57 °FPartly cloudy.6 mph100%29.89 "Hg10 mi
3:45 AM57 °FPassing clouds.7 mph100%29.90 "Hg10 mi
2:55 AM57 °FPassing clouds.7 mph100%29.91 "Hg10 mi
11:30 PM
Oct 30
63 °FPassing clouds.3 mph77%29.87 "Hg10 mi
10:45 PM61 °FPassing clouds.7 mph77%29.87 "Hg10 mi
9:50 PM61 °FPassing clouds.3 mph68%29.86 "Hg10 mi
8:48 PM63 °FPassing clouds.5 mph59%29.86 "Hg10 mi
7:45 PM68 °FPassing clouds.7 mph46%29.87 "Hg10 mi
6:45 PM68 °FPartly sunny.3 mph46%29.86 "Hg10 mi
5:45 PM77 °FPartly sunny.No wind34%29.85 "Hg10 mi
3:50 PM79 °FPartly sunny.8 mph30%29.86 "Hg10 mi
2:50 PM81 °FPartly sunny.7 mph28%29.86 "Hg10 mi
1:45 PM79 °FPartly sunny.5 mph30%29.88 "Hg10 mi
12:45 PM79 °FPartly sunny.6 mph30%29.91 "Hg10 mi
11:45 AM75 °FPartly sunny.8 mph34%29.94 "Hg10 mi
10:52 AM72 °FPartly sunny.6 mph38%29.95 "Hg10 mi
Weather by CustomWeather, © 2014

See weather overviewHow to use our weather pages